Winner, SD

2:41 AM CDT on June 24, 2017 (GMT -0500)
Winner

Weather History for KICR - September, 2012

Change the Weather History Date:

Wednesday, September 19, 2012

  Actual Average Record
Temperature  
Mean Temperature 63 °F 62 °F  
Max Temperature 75 °F 76 °F 91 °F (2014)
Min Temperature 50 °F 49 °F 42 °F (2007)
Degree Days  
Heating Degree Days 2 5  
Month to date heating degree days 24 55  
Since 1 July heating degree days 27 69  
Cooling Degree Days 0 2  
Month to date cooling degree days 116 85  
Year to date cooling degree days 1451 891  
Growing Degree Days 15 (Base 50)    
Moisture  
Dew Point 33 °F    
Average Humidity 29    
Maximum Humidity 39    
Minimum Humidity 19    
Precipitation  
Precipitation 0.00 in 0.08 in 0.07 in (2014)
Month to date precipitation 0.08 1.28  
Year to date precipitation 10.11 18.28  
Sea Level Pressure  
Sea Level Pressure 29.91 in    
Wind  
Wind Speed 15 mph (WNW)    
Max Wind Speed 33 mph    
Max Gust Speed 43 mph    
Visibility 10 miles    
Events      
T = Trace of Precipitation, MM = Missing Value Source: NWS Daily Summary

Daily Weather History Graph

Daily Weather History Graph

Search for Another Location

Airport or City:

Trip Planner

Search our weather history database for the weather conditions in past years. The results will help you decide how hot, cold, wet, or windy it might be!

Date:

Astronomy

Sep. 19, 2012 Rise Set
Actual Time 7:23 AM CDT 7:41 PM CDT
Civil Twilight 6:55 AM CDT 8:09 PM CDT
Nautical Twilight 6:21 AM CDT 8:43 PM CDT
Astronomical Twilight 5:47 AM CDT 9:17 PM CDT
Moon 11:45 AM CDT (9/19) 9:42 PM CDT (9/19)
Length of Visible Light 13h 14m
Length of Day
12h 17m
Waxing Crescent, 17% of the Moon is Illuminated
Sep 19
Waxing Crescent
Sep 22
First Quarter
Sep 29
Full
Oct 8
Last Quarter
Oct 15
New

Hourly Weather History & Observations

Time (CDT) Temp. Dew Point Humidity Pressure Visibility Wind Dir Wind Speed Gust Speed Precip Events Conditions
12:53 AM 63.0 °F 34.0 °F 34% 29.79 in 10.0 mi WSW 9.2 mph - N/A   Clear
1:53 AM 63.0 °F 33.1 °F 33% 29.78 in 10.0 mi WSW 8.1 mph - N/A   Clear
2:53 AM 64.0 °F 33.1 °F 31% 29.77 in 10.0 mi SW 5.8 mph - N/A   Clear
3:53 AM 62.1 °F 33.1 °F 34% 29.76 in 10.0 mi SW 8.1 mph - N/A   Clear
4:53 AM 62.1 °F 34.0 °F 35% 29.75 in 10.0 mi SSW 15.0 mph 19.6 mph N/A   Clear
6:53 AM 62.1 °F 35.1 °F 37% 29.75 in 10.0 mi SSW 9.2 mph - N/A   Clear
7:53 AM 61.0 °F 35.1 °F 38% 29.82 in 10.0 mi North 23.0 mph 29.9 mph N/A   Clear
8:53 AM 61.0 °F 36.0 °F 39% 29.85 in 10.0 mi WNW 12.7 mph - N/A   Clear
9:53 AM 68.0 °F 37.0 °F 32% 29.90 in 10.0 mi NNW 18.4 mph 25.3 mph N/A   Clear
10:53 AM 71.1 °F 39.0 °F 31% 29.95 in 10.0 mi North 20.7 mph 28.8 mph N/A   Clear
11:53 AM 73.0 °F 39.0 °F 29% 29.97 in 10.0 mi NNW 18.4 mph 28.8 mph N/A   Clear
12:53 PM 73.9 °F 35.1 °F 24% 29.98 in 10.0 mi NNW 26.5 mph 33.4 mph N/A   Clear
1:53 PM 75.0 °F 30.0 °F 19% 29.98 in 10.0 mi NW 27.6 mph 33.4 mph N/A   Clear
2:53 PM 73.9 °F 30.9 °F 21% 29.97 in 10.0 mi NW 24.2 mph 42.6 mph N/A   Clear
3:53 PM 73.9 °F 30.9 °F 21% 29.97 in 10.0 mi NW 28.8 mph 38.0 mph N/A   Clear
4:53 PM 73.9 °F 28.9 °F 19% 29.98 in 10.0 mi NW 26.5 mph 34.5 mph N/A   Clear
5:53 PM 73.0 °F 28.0 °F 19% 29.97 in 10.0 mi NNW 19.6 mph 28.8 mph N/A   Clear
6:53 PM 70.0 °F 28.9 °F 22% 29.98 in 10.0 mi North 16.1 mph - N/A   Clear
8:53 PM 59.0 °F 30.9 °F 35% 30.03 in 10.0 mi West 4.6 mph - N/A   Clear
9:53 PM 57.0 °F 30.9 °F 37% 30.04 in 10.0 mi WSW 6.9 mph - N/A   Clear
10:53 PM 55.0 °F 30.0 °F 38% 30.04 in 10.0 mi WSW 5.8 mph - N/A   Clear
11:53 PM 55.0 °F 30.0 °F 38% 30.05 in 10.0 mi West 5.8 mph - N/A   Clear